owner,sensor,date,latitude,longitude,vertical_datum,wind_speed,wind_to_direction,wind_speed_of_gust,qcFlag 
TCOON,ioos:station:TCOON:003:1,2011-07-01T00:00:00Z,26.8015,-97.4706,0.0,6.7,68.0,8.2,'11111222,11111222,11111222' 
TCOON,ioos:station:TCOON:003:1,2011-07-01T02:00:00Z,26.8015,-97.4706,0.0,5.9,79.0,6.8,'11111222,11111222,11111222' 
TCOON,ioos:station:TCOON:003:1,2011-07-01T03:00:00Z,26.8015,-97.4706,0.0,5.8,86.0,7.5,'11111222,11111222,11111222' 
TCOON,ioos:station:TCOON:003:1,2011-07-01T04:00:00Z,26.8015,-97.4706,0.0,5.8,84.0,7.1,'11111222,11111222,11111222' 
TCOON,ioos:station:TCOON:003:1,2011-07-01T05:00:00Z,26.8015,-97.4706,0.0,5.6,97.0,6.5,'11111222,11111222,11111222' 
TCOON,ioos:station:TCOON:003:1,2011-07-01T06:00:00Z,26.8015,-97.4706,0.0,4.9,89.0,5.6,'11111222,11111222,11111222' 
TCOON,ioos:station:TCOON:003:1,2011-07-01T07:00:00Z,26.8015,-97.4706,0.0,5.4,89.0,6.2,'11111222,11111222,11111222' 
TCOON,ioos:station:TCOON:003:1,2011-07-01T08:00:00Z,26.8015,-97.4706,0.0,5.2,88.0,6.1,'11111222,11111222,11111222' 
TCOON,ioos:station:TCOON:003:1,2011-07-01T09:00:00Z,26.8015,-97.4706,0.0,5.0,91.0,5.6,'11111222,11111222,11111222' 
TCOON,ioos:station:TCOON:003:1,2011-07-01T10:00:00Z,26.8015,-97.4706,0.0,5.5,90.0,6.1,'11111222,11111222,11111222' 
TCOON,ioos:station:TCOON:003:1,2011-07-01T11:00:00Z,26.8015,-97.4706,0.0,5.1,89.0,6.1,'11111222,11111222,11111222' 
TCOON,ioos:station:TCOON:003:1,2011-07-01T12:00:00Z,26.8015,-97.4706,0.0,5.3,95.0,6.0,'11111222,11111222,11111222' 
TCOON,ioos:station:TCOON:003:1,2011-07-01T13:00:00Z,26.8015,-97.4706,0.0,6.5,92.0,7.7,'11111222,11111222,11111222' 
TCOON,ioos:station:TCOON:003:1,2011-07-01T14:00:00Z,26.8015,-97.4706,0.0,7.3,87.0,8.7,'11111222,11111222,11111222' 
TCOON,ioos:station:TCOON:003:1,2011-07-01T15:00:00Z,26.8015,-97.4706,0.0,7.8,90.0,9.9,'11111222,11111222,11111222' 
TCOON,ioos:station:TCOON:003:1,2011-07-01T16:00:00Z,26.8015,-97.4706,0.0,7.8,90.0,10.0,'11111222,11111222,11111222' 
TCOON,ioos:station:TCOON:003:1,2011-07-01T17:00:00Z,26.8015,-97.4706,0.0,8.4,89.0,10.7,'11111222,11111222,11111222' 
TCOON,ioos:station:TCOON:003:1,2011-07-01T18:00:00Z,26.8015,-97.4706,0.0,8.7,91.0,10.7,'11111222,11111222,11111222' 
TCOON,ioos:station:TCOON:003:1,2011-07-01T19:00:00Z,26.8015,-97.4706,0.0,9.0,82.0,10.8,'11111222,11111222,11111222' 
TCOON,ioos:station:TCOON:003:1,2011-07-01T20:00:00Z,26.8015,-97.4706,0.0,9.5,85.0,10.9,'11111222,11111222,11111222' 
TCOON,ioos:station:TCOON:003:1,2011-07-01T21:00:00Z,26.8015,-97.4706,0.0,8.0,95.0,10.2,'11111222,11111222,11111222' 
TCOON,ioos:station:TCOON:003:1,2011-07-01T22:00:00Z,26.8015,-97.4706,0.0,8.5,101.0,10.2,'11111222,11111222,11111222' 
TCOON,ioos:station:TCOON:003:1,2011-07-01T23:00:00Z,26.8015,-97.4706,0.0,7.9,104.0,9.1,'11111222,11111222,11111222' 
TCOON,ioos:station:TCOON:003:1,2011-07-02T00:00:00Z,26.8015,-97.4706,0.0,7.1,107.0,8.8,'11111222,11111222,11111222' 
TCOON,ioos:station:TCOON:003:1,2011-07-02T01:00:00Z,26.8015,-97.4706,0.0,5.8,103.0,6.6,'11111222,11111222,11111222' 
TCOON,ioos:station:TCOON:003:1,2011-07-02T02:00:00Z,26.8015,-97.4706,0.0,5.3,100.0,6.0,'11111222,11111222,11111222' 
TCOON,ioos:station:TCOON:003:1,2011-07-02T03:00:00Z,26.8015,-97.4706,0.0,4.5,97.0,5.2,'11111222,11111222,11111222' 
TCOON,ioos:station:TCOON:003:1,2011-07-02T04:00:00Z,26.8015,-97.4706,0.0,4.3,98.0,5.2,'11111222,11111222,11111222' 
TCOON,ioos:station:TCOON:003:1,2011-07-02T05:00:00Z,26.8015,-97.4706,0.0,4.8,99.0,5.9,'11111222,11111222,11111222' 
TCOON,ioos:station:TCOON:003:1,2011-07-02T06:00:00Z,26.8015,-97.4706,0.0,4.8,99.0,5.5,'11111222,11111222,11111222' 
TCOON,ioos:station:TCOON:003:1,2011-07-02T07:00:00Z,26.8015,-97.4706,0.0,4.5,95.0,5.3,'11111222,11111222,11111222' 
TCOON,ioos:station:TCOON:003:1,2011-07-02T08:00:00Z,26.8015,-97.4706,0.0,5.4,92.0,6.1,'11111222,11111222,11111222' 
TCOON,ioos:station:TCOON:003:1,2011-07-02T09:00:00Z,26.8015,-97.4706,0.0,4.7,103.0,5.3,'11111222,11111222,11111222' 
TCOON,ioos:station:TCOON:003:1,2011-07-02T10:00:00Z,26.8015,-97.4706,0.0,4.2,105.0,4.8,'11111222,11111222,11111222' 
TCOON,ioos:station:TCOON:003:1,2011-07-02T11:00:00Z,26.8015,-97.4706,0.0,3.4,117.0,4.4,'11111222,11111222,11111222' 
TCOON,ioos:station:TCOON:003:1,2011-07-02T12:00:00Z,26.8015,-97.4706,0.0,3.1,118.0,3.9,'11111222,11111222,11111222' 
TCOON,ioos:station:TCOON:003:1,2011-07-02T13:00:00Z,26.8015,-97.4706,0.0,5.2,117.0,6.2,'11111222,11111222,11111222' 
TCOON,ioos:station:TCOON:003:1,2011-07-02T14:00:00Z,26.8015,-97.4706,0.0,4.7,134.0,5.3,'11111222,11111222,11111222' 
TCOON,ioos:station:TCOON:003:1,2011-07-02T15:00:00Z,26.8015,-97.4706,0.0,4.5,132.0,5.2,'11111222,11111222,11111222' 
TCOON,ioos:station:TCOON:003:1,2011-07-02T16:00:00Z,26.8015,-97.4706,0.0,4.6,109.0,6.0,'11111222,11111222,11111222' 
TCOON,ioos:station:TCOON:003:1,2011-07-02T17:00:00Z,26.8015,-97.4706,0.0,5.3,99.0,6.5,'11111222,11111222,11111222' 
TCOON,ioos:station:TCOON:003:1,2011-07-02T18:00:00Z,26.8015,-97.4706,0.0,5.5,101.0,7.0,'11111222,11111222,11111222' 
TCOON,ioos:station:TCOON:003:1,2011-07-02T19:00:00Z,26.8015,-97.4706,0.0,6.3,93.0,8.2,'11111222,11111222,11111222' 
TCOON,ioos:station:TCOON:003:1,2011-07-02T20:00:00Z,26.8015,-97.4706,0.0,7.8,98.0,9.4,'11111222,11111222,11111222' 
TCOON,ioos:station:TCOON:003:1,2011-07-02T21:00:00Z,26.8015,-97.4706,0.0,6.7,104.0,8.2,'11111222,11111222,11111222' 
TCOON,ioos:station:TCOON:003:1,2011-07-02T22:00:00Z,26.8015,-97.4706,0.0,7.4,106.0,8.5,'11111222,11111222,11111222' 
TCOON,ioos:station:TCOON:003:1,2011-07-02T23:00:00Z,26.8015,-97.4706,0.0,7.3,119.0,8.2,'11111222,11111222,11111222' 
TCOON,ioos:station:TCOON:003:1,2011-07-03T00:00:00Z,26.8015,-97.4706,0.0,7.4,113.0,8.1,'11111222,11111222,11111222' 
TCOON,ioos:station:TCOON:003:1,2011-07-03T01:00:00Z,26.8015,-97.4706,0.0,6.2,119.0,6.7,'11111222,11111222,11111222' 
TCOON,ioos:station:TCOON:003:1,2011-07-03T02:00:00Z,26.8015,-97.4706,0.0,5.2,126.0,5.8,'11111222,11111222,11111222' 
TCOON,ioos:station:TCOON:003:1,2011-07-03T03:00:00Z,26.8015,-97.4706,0.0,5.8,113.0,6.4,'11111222,11111222,11111222' 
TCOON,ioos:station:TCOON:003:1,2011-07-03T04:00:00Z,26.8015,-97.4706,0.0,4.9,111.0,5.5,'11111222,11111222,11111222' 
TCOON,ioos:station:TCOON:003:1,2011-07-03T05:00:00Z,26.8015,-97.4706,0.0,5.6,136.0,6.2,'11111222,11111222,11111222' 
TCOON,ioos:station:TCOON:003:1,2011-07-03T06:00:00Z,26.8015,-97.4706,0.0,5.8,141.0,6.6,'11111222,11111222,11111222' 
TCOON,ioos:station:TCOON:003:1,2011-07-03T07:00:00Z,26.8015,-97.4706,0.0,2.5,214.0,3.3,'11111222,11111222,11111222' 
TCOON,ioos:station:TCOON:003:1,2011-07-03T08:00:00Z,26.8015,-97.4706,0.0,2.1,237.0,2.7,'11111222,11111222,11111222' 
TCOON,ioos:station:TCOON:003:1,2011-07-03T09:00:00Z,26.8015,-97.4706,0.0,1.3,260.0,1.8,'11111222,11111222,11111222' 
TCOON,ioos:station:TCOON:003:1,2011-07-03T10:00:00Z,26.8015,-97.4706,0.0,1.8,252.0,2.1,'11111222,11111222,11111222' 
TCOON,ioos:station:TCOON:003:1,2011-07-03T11:00:00Z,26.8015,-97.4706,0.0,2.2,302.0,2.7,'11111222,11111222,11111222' 
TCOON,ioos:station:TCOON:003:1,2011-07-03T12:00:00Z,26.8015,-97.4706,0.0,1.2,277.0,1.6,'11111222,11111222,11111222' 
TCOON,ioos:station:TCOON:003:1,2011-07-03T13:00:00Z,26.8015,-97.4706,0.0,1.2,251.0,1.4,'11111222,11111222,11111222' 
TCOON,ioos:station:TCOON:003:1,2011-07-03T14:00:00Z,26.8015,-97.4706,0.0,1.4,337.0,1.7,'11111222,11111222,11111222' 
TCOON,ioos:station:TCOON:003:1,2011-07-03T15:00:00Z,26.8015,-97.4706,0.0,1.6,102.0,2.0,'11111222,11111222,11111222' 
TCOON,ioos:station:TCOON:003:1,2011-07-03T16:00:00Z,26.8015,-97.4706,0.0,1.7,136.0,2.4,'11111222,11111222,11111222' 
TCOON,ioos:station:TCOON:003:1,2011-07-03T17:00:00Z,26.8015,-97.4706,0.0,4.2,105.0,4.9,'11111222,11111222,11111222' 
TCOON,ioos:station:TCOON:003:1,2011-07-03T18:00:00Z,26.8015,-97.4706,0.0,5.4,91.0,6.7,'11111222,11111222,11111222' 
TCOON,ioos:station:TCOON:003:1,2011-07-03T19:00:00Z,26.8015,-97.4706,0.0,6.0,115.0,7.5,'11111222,11111222,11111222' 
TCOON,ioos:station:TCOON:003:1,2011-07-03T20:00:00Z,26.8015,-97.4706,0.0,6.5,103.0,7.5,'11111222,11111222,11111222' 
TCOON,ioos:station:TCOON:003:1,2011-07-03T21:00:00Z,26.8015,-97.4706,0.0,7.0,111.0,8.0,'11111222,11111222,11111222' 
TCOON,ioos:station:TCOON:003:1,2011-07-03T22:00:00Z,26.8015,-97.4706,0.0,6.4,131.0,7.3,'11111222,11111222,11111222' 
TCOON,ioos:station:TCOON:003:1,2011-07-03T23:00:00Z,26.8015,-97.4706,0.0,8.1,121.0,9.0,'11111222,11111222,11111222' 
TCOON,ioos:station:TCOON:003:1,2011-07-04T00:00:00Z,26.8015,-97.4706,0.0,8.0,131.0,8.7,'11111222,11111222,11111222' 
TCOON,ioos:station:TCOON:003:1,2011-07-04T01:00:00Z,26.8015,-97.4706,0.0,8.0,131.0,9.3,'11111222,11111222,11111222' 
TCOON,ioos:station:TCOON:003:1,2011-07-04T02:00:00Z,26.8015,-97.4706,0.0,7.4,132.0,8.8,'11111222,11111222,11111222' 
TCOON,ioos:station:TCOON:003:1,2011-07-04T03:00:00Z,26.8015,-97.4706,0.0,6.8,132.0,7.7,'11111222,11111222,11111222' 
TCOON,ioos:station:TCOON:003:1,2011-07-04T04:00:00Z,26.8015,-97.4706,0.0,4.6,183.0,5.3,'11111222,11111222,11111222' 
TCOON,ioos:station:TCOON:003:1,2011-07-04T05:00:00Z,26.8015,-97.4706,0.0,4.1,177.0,4.8,'11111222,11111222,11111222' 
TCOON,ioos:station:TCOON:003:1,2011-07-04T06:00:00Z,26.8015,-97.4706,0.0,4.6,200.0,5.0,'11111222,11111222,11111222' 
TCOON,ioos:station:TCOON:003:1,2011-07-04T07:00:00Z,26.8015,-97.4706,0.0,3.8,182.0,4.6,'11111222,11111222,11111222' 
TCOON,ioos:station:TCOON:003:1,2011-07-04T08:00:00Z,26.8015,-97.4706,0.0,4.1,175.0,4.8,'11111222,11111222,11111222' 
TCOON,ioos:station:TCOON:003:1,2011-07-04T09:00:00Z,26.8015,-97.4706,0.0,5.1,166.0,5.6,'11111222,11111222,11111222' 
TCOON,ioos:station:TCOON:003:1,2011-07-04T10:00:00Z,26.8015,-97.4706,0.0,4.8,164.0,5.6,'11111222,11111222,11111222' 
TCOON,ioos:station:TCOON:003:1,2011-07-04T11:00:00Z,26.8015,-97.4706,0.0,4.6,172.0,5.0,'11111222,11111222,11111222' 
TCOON,ioos:station:TCOON:003:1,2011-07-04T12:00:00Z,26.8015,-97.4706,0.0,4.5,169.0,5.4,'11111222,11111222,11111222' 
TCOON,ioos:station:TCOON:003:1,2011-07-04T13:00:00Z,26.8015,-97.4706,0.0,4.1,173.0,4.7,'11111222,11111222,11111222' 
TCOON,ioos:station:TCOON:003:1,2011-07-04T14:00:00Z,26.8015,-97.4706,0.0,4.0,140.0,4.4,'11111222,11111222,11111222' 
TCOON,ioos:station:TCOON:003:1,2011-07-04T15:00:00Z,26.8015,-97.4706,0.0,4.0,153.0,4.5,'11111222,11111222,11111222' 
TCOON,ioos:station:TCOON:003:1,2011-07-04T16:00:00Z,26.8015,-97.4706,0.0,4.0,143.0,5.1,'11111222,11111222,11111222' 
TCOON,ioos:station:TCOON:003:1,2011-07-04T17:00:00Z,26.8015,-97.4706,0.0,3.3,121.0,5.1,'11111222,11111222,11111222' 
TCOON,ioos:station:TCOON:003:1,2011-07-04T18:00:00Z,26.8015,-97.4706,0.0,4.8,95.0,7.1,'11111222,11111222,11111222' 
TCOON,ioos:station:TCOON:003:1,2011-07-04T19:00:00Z,26.8015,-97.4706,0.0,5.5,104.0,7.1,'11111222,11111222,11111222' 
TCOON,ioos:station:TCOON:003:1,2011-07-04T20:00:00Z,26.8015,-97.4706,0.0,7.5,105.0,8.9,'11111222,11111222,11111222' 
TCOON,ioos:station:TCOON:003:1,2011-07-04T21:00:00Z,26.8015,-97.4706,0.0,8.5,97.0,9.9,'11111222,11111222,11111222' 
TCOON,ioos:station:TCOON:003:1,2011-07-04T22:00:00Z,26.8015,-97.4706,0.0,7.8,113.0,9.3,'11111222,11111222,11111222' 
TCOON,ioos:station:TCOON:003:1,2011-07-04T23:00:00Z,26.8015,-97.4706,0.0,7.7,107.0,9.7,'11111222,11111222,11111222' 
TCOON,ioos:station:TCOON:003:1,2011-07-05T00:00:00Z,26.8015,-97.4706,0.0,7.4,121.0,8.4,'11111222,11111222,11111222' 
TCOON,ioos:station:TCOON:003:1,2011-07-05T01:00:00Z,26.8015,-97.4706,0.0,6.8,133.0,7.7,'11111222,11111222,11111222' 
TCOON,ioos:station:TCOON:003:1,2011-07-05T02:00:00Z,26.8015,-97.4706,0.0,7.1,138.0,7.9,'11111222,11111222,11111222' 
TCOON,ioos:station:TCOON:003:1,2011-07-05T03:00:00Z,26.8015,-97.4706,0.0,7.1,134.0,8.4,'11111222,11111222,11111222' 
TCOON,ioos:station:TCOON:003:1,2011-07-05T04:00:00Z,26.8015,-97.4706,0.0,6.2,138.0,7.9,'11111222,11111222,11111222' 
TCOON,ioos:station:TCOON:003:1,2011-07-05T05:00:00Z,26.8015,-97.4706,0.0,6.0,137.0,7.3,'11111222,11111222,11111222' 
TCOON,ioos:station:TCOON:003:1,2011-07-05T06:00:00Z,26.8015,-97.4706,0.0,6.7,143.0,7.8,'11111222,11111222,11111222' 
TCOON,ioos:station:TCOON:003:1,2011-07-05T07:00:00Z,26.8015,-97.4706,0.0,6.8,151.0,7.9,'11111222,11111222,11111222' 
TCOON,ioos:station:TCOON:003:1,2011-07-05T08:00:00Z,26.8015,-97.4706,0.0,4.0,191.0,4.9,'11111222,11111222,11111222' 
TCOON,ioos:station:TCOON:003:1,2011-07-05T09:00:00Z,26.8015,-97.4706,0.0,4.4,177.0,5.4,'11111222,11111222,11111222' 
TCOON,ioos:station:TCOON:003:1,2011-07-05T10:00:00Z,26.8015,-97.4706,0.0,5.0,169.0,5.6,'11111222,11111222,11111222' 
TCOON,ioos:station:TCOON:003:1,2011-07-05T11:00:00Z,26.8015,-97.4706,0.0,3.2,183.0,3.6,'11111222,11111222,11111222' 
TCOON,ioos:station:TCOON:003:1,2011-07-05T12:00:00Z,26.8015,-97.4706,0.0,2.7,178.0,3.2,'11111222,11111222,11111222' 
TCOON,ioos:station:TCOON:003:1,2011-07-05T13:00:00Z,26.8015,-97.4706,0.0,4.3,152.0,4.9,'11111222,11111222,11111222' 
TCOON,ioos:station:TCOON:003:1,2011-07-05T14:00:00Z,26.8015,-97.4706,0.0,3.7,142.0,4.5,'11111222,11111222,11111222' 
TCOON,ioos:station:TCOON:003:1,2011-07-05T15:00:00Z,26.8015,-97.4706,0.0,3.9,126.0,4.4,'11111222,11111222,11111222' 
TCOON,ioos:station:TCOON:003:1,2011-07-05T16:00:00Z,26.8015,-97.4706,0.0,3.4,124.0,4.0,'11111222,11111222,11111222' 
TCOON,ioos:station:TCOON:003:1,2011-07-05T17:00:00Z,26.8015,-97.4706,0.0,2.3,118.0,3.3,'11111222,11111222,11111222' 
TCOON,ioos:station:TCOON:003:1,2011-07-05T18:00:00Z,26.8015,-97.4706,0.0,5.0,112.0,6.7,'11111222,11111222,11111222' 
TCOON,ioos:station:TCOON:003:1,2011-07-05T19:00:00Z,26.8015,-97.4706,0.0,6.8,81.0,8.4,'11111222,11111222,11111222' 
TCOON,ioos:station:TCOON:003:1,2011-07-05T20:00:00Z,26.8015,-97.4706,0.0,6.7,95.0,8.6,'11111222,11111222,11111222' 
TCOON,ioos:station:TCOON:003:1,2011-07-05T21:00:00Z,26.8015,-97.4706,0.0,7.2,98.0,9.0,'11111222,11111222,11111222' 
TCOON,ioos:station:TCOON:003:1,2011-07-05T22:00:00Z,26.8015,-97.4706,0.0,6.6,94.0,8.3,'11111222,11111222,11111222' 
TCOON,ioos:station:TCOON:003:1,2011-07-05T23:00:00Z,26.8015,-97.4706,0.0,6.4,90.0,7.6,'11111222,11111222,11111222' 
TCOON,ioos:station:TCOON:003:1,2011-07-06T00:00:00Z,26.8015,-97.4706,0.0,6.5,92.0,7.5,'11111222,11111222,11111222' 
TCOON,ioos:station:TCOON:003:1,2011-07-06T01:00:00Z,26.8015,-97.4706,0.0,6.7,106.0,7.7,'11111222,11111222,11111222' 
TCOON,ioos:station:TCOON:003:1,2011-07-06T02:00:00Z,26.8015,-97.4706,0.0,6.2,119.0,7.1,'11111222,11111222,11111222' 
TCOON,ioos:station:TCOON:003:1,2011-07-06T03:00:00Z,26.8015,-97.4706,0.0,7.1,133.0,7.8,'11111222,11111222,11111222' 
TCOON,ioos:station:TCOON:003:1,2011-07-06T04:00:00Z,26.8015,-97.4706,0.0,6.9,132.0,8.1,'11111222,11111222,11111222' 
TCOON,ioos:station:TCOON:003:1,2011-07-06T05:00:00Z,26.8015,-97.4706,0.0,7.0,140.0,7.9,'11111222,11111222,11111222' 
TCOON,ioos:station:TCOON:003:1,2011-07-06T06:00:00Z,26.8015,-97.4706,0.0,6.8,133.0,7.6,'11111222,11111222,11111222' 
TCOON,ioos:station:TCOON:003:1,2011-07-06T07:00:00Z,26.8015,-97.4706,0.0,3.5,199.0,4.0,'11111222,11111222,11111222' 
TCOON,ioos:station:TCOON:003:1,2011-07-06T08:00:00Z,26.8015,-97.4706,0.0,2.7,183.0,3.3,'11111222,11111222,11111222' 
TCOON,ioos:station:TCOON:003:1,2011-07-06T09:00:00Z,26.8015,-97.4706,0.0,3.4,188.0,4.1,'11111222,11111222,11111222' 
TCOON,ioos:station:TCOON:003:1,2011-07-06T10:00:00Z,26.8015,-97.4706,0.0,2.1,182.0,2.6,'11111222,11111222,11111222' 
TCOON,ioos:station:TCOON:003:1,2011-07-06T11:00:00Z,26.8015,-97.4706,0.0,1.9,172.0,2.2,'11111222,11111222,11111222' 
TCOON,ioos:station:TCOON:003:1,2011-07-06T12:00:00Z,26.8015,-97.4706,0.0,1.7,180.0,2.0,'11111222,11111222,11111222' 
TCOON,ioos:station:TCOON:003:1,2011-07-06T13:00:00Z,26.8015,-97.4706,0.0,1.2,163.0,1.4,'11111222,11111222,11111222' 
TCOON,ioos:station:TCOON:003:1,2011-07-06T14:00:00Z,26.8015,-97.4706,0.0,2.4,137.0,2.7,'11111222,11111222,11111222' 
TCOON,ioos:station:TCOON:003:1,2011-07-06T15:00:00Z,26.8015,-97.4706,0.0,3.8,141.0,4.2,'11111222,11111222,11111222' 
TCOON,ioos:station:TCOON:003:1,2011-07-06T16:00:00Z,26.8015,-97.4706,0.0,3.1,168.0,3.6,'11111222,11111222,11111222' 
TCOON,ioos:station:TCOON:003:1,2011-07-06T17:00:00Z,26.8015,-97.4706,0.0,3.4,119.0,4.5,'11111222,11111222,11111222' 
TCOON,ioos:station:TCOON:003:1,2011-07-06T18:00:00Z,26.8015,-97.4706,0.0,5.2,114.0,6.2,'11111222,11111222,11111222' 
TCOON,ioos:station:TCOON:003:1,2011-07-06T19:00:00Z,26.8015,-97.4706,0.0,5.7,117.0,6.6,'11111222,11111222,11111222' 
TCOON,ioos:station:TCOON:003:1,2011-07-06T20:00:00Z,26.8015,-97.4706,0.0,6.5,102.0,8.6,'11111222,11111222,11111222' 
TCOON,ioos:station:TCOON:003:1,2011-07-06T21:00:00Z,26.8015,-97.4706,0.0,6.9,104.0,8.0,'11111222,11111222,11111222' 
TCOON,ioos:station:TCOON:003:1,2011-07-06T22:00:00Z,26.8015,-97.4706,0.0,6.8,90.0,8.3,'11111222,11111222,11111222' 
TCOON,ioos:station:TCOON:003:1,2011-07-06T23:00:00Z,26.8015,-97.4706,0.0,6.8,105.0,8.9,'11111222,11111222,11111222' 
TCOON,ioos:station:TCOON:003:1,2011-07-07T00:00:00Z,26.8015,-97.4706,0.0,6.7,117.0,7.9,'11111222,11111222,11111222' 
TCOON,ioos:station:TCOON:003:1,2011-07-07T01:00:00Z,26.8015,-97.4706,0.0,6.6,108.0,7.9,'11111222,11111222,11111222' 
TCOON,ioos:station:TCOON:003:1,2011-07-07T02:00:00Z,26.8015,-97.4706,0.0,6.7,119.0,7.8,'11111222,11111222,11111222' 
TCOON,ioos:station:TCOON:003:1,2011-07-07T03:00:00Z,26.8015,-97.4706,0.0,7.4,125.0,8.6,'11111222,11111222,11111222' 
TCOON,ioos:station:TCOON:003:1,2011-07-07T04:00:00Z,26.8015,-97.4706,0.0,7.0,135.0,7.9,'11111222,11111222,11111222' 
TCOON,ioos:station:TCOON:003:1,2011-07-07T05:00:00Z,26.8015,-97.4706,0.0,7.4,141.0,8.5,'11111222,11111222,11111222' 
TCOON,ioos:station:TCOON:003:1,2011-07-07T06:00:00Z,26.8015,-97.4706,0.0,3.6,187.0,5.4,'11111222,11111222,11111222' 
TCOON,ioos:station:TCOON:003:1,2011-07-07T07:00:00Z,26.8015,-97.4706,0.0,2.1,195.0,2.5,'11111222,11111222,11111222' 
TCOON,ioos:station:TCOON:003:1,2011-07-07T08:00:00Z,26.8015,-97.4706,0.0,3.5,175.0,4.3,'11111222,11111222,11111222' 
TCOON,ioos:station:TCOON:003:1,2011-07-07T09:00:00Z,26.8015,-97.4706,0.0,3.4,187.0,4.0,'11111222,11111222,11111222' 
TCOON,ioos:station:TCOON:003:1,2011-07-07T10:00:00Z,26.8015,-97.4706,0.0,3.8,175.0,4.3,'11111222,11111222,11111222' 
TCOON,ioos:station:TCOON:003:1,2011-07-07T11:00:00Z,26.8015,-97.4706,0.0,4.3,178.0,4.8,'11111222,11111222,11111222' 
TCOON,ioos:station:TCOON:003:1,2011-07-07T12:00:00Z,26.8015,-97.4706,0.0,3.4,177.0,3.9,'11111222,11111222,11111222' 
TCOON,ioos:station:TCOON:003:1,2011-07-07T13:00:00Z,26.8015,-97.4706,0.0,4.0,161.0,4.7,'11111222,11111222,11111222' 
TCOON,ioos:station:TCOON:003:1,2011-07-07T14:00:00Z,26.8015,-97.4706,0.0,5.0,138.0,5.5,'11111222,11111222,11111222' 
TCOON,ioos:station:TCOON:003:1,2011-07-07T15:00:00Z,26.8015,-97.4706,0.0,4.5,129.0,5.2,'11111222,11111222,11111222' 
TCOON,ioos:station:TCOON:003:1,2011-07-07T16:00:00Z,26.8015,-97.4706,0.0,4.8,127.0,5.7,'11111222,11111222,11111222' 
TCOON,ioos:station:TCOON:003:1,2011-07-07T17:00:00Z,26.8015,-97.4706,0.0,5.1,95.0,6.4,'11111222,11111222,11111222' 
TCOON,ioos:station:TCOON:003:1,2011-07-07T18:00:00Z,26.8015,-97.4706,0.0,5.4,96.0,7.0,'11111222,11111222,11111222' 
TCOON,ioos:station:TCOON:003:1,2011-07-07T19:00:00Z,26.8015,-97.4706,0.0,5.8,104.0,7.1,'11111222,11111222,11111222' 
TCOON,ioos:station:TCOON:003:1,2011-07-07T20:00:00Z,26.8015,-97.4706,0.0,6.8,109.0,7.9,'11111222,11111222,11111222' 
TCOON,ioos:station:TCOON:003:1,2011-07-07T21:00:00Z,26.8015,-97.4706,0.0,7.8,101.0,8.9,'11111222,11111222,11111222' 
TCOON,ioos:station:TCOON:003:1,2011-07-07T22:00:00Z,26.8015,-97.4706,0.0,6.6,108.0,8.0,'11111222,11111222,11111222' 
TCOON,ioos:station:TCOON:003:1,2011-07-07T23:00:00Z,26.8015,-97.4706,0.0,7.5,116.0,8.7,'11111222,11111222,11111222' 
TCOON,ioos:station:TCOON:003:1,2011-07-08T00:00:00Z,26.8015,-97.4706,0.0,6.9,119.0,8.0,'11111222,11111222,11111222' 
TCOON,ioos:station:TCOON:003:1,2011-07-08T01:00:00Z,26.8015,-97.4706,0.0,7.3,127.0,8.4,'11111222,11111222,11111222' 
TCOON,ioos:station:TCOON:003:1,2011-07-08T02:00:00Z,26.8015,-97.4706,0.0,6.6,121.0,8.0,'11111222,11111222,11111222' 
TCOON,ioos:station:TCOON:003:1,2011-07-08T03:00:00Z,26.8015,-97.4706,0.0,7.1,137.0,7.9,'11111222,11111222,11111222' 
TCOON,ioos:station:TCOON:003:1,2011-07-08T04:00:00Z,26.8015,-97.4706,0.0,7.1,148.0,8.2,'11111222,11111222,11111222' 
TCOON,ioos:station:TCOON:003:1,2011-07-08T05:00:00Z,26.8015,-97.4706,0.0,6.5,145.0,7.5,'11111222,11111222,11111222' 
TCOON,ioos:station:TCOON:003:1,2011-07-08T06:00:00Z,26.8015,-97.4706,0.0,3.4,172.0,4.2,'11111222,11111222,11111222' 
TCOON,ioos:station:TCOON:003:1,2011-07-08T07:00:00Z,26.8015,-97.4706,0.0,2.7,199.0,3.5,'11111222,11111222,11111222' 
TCOON,ioos:station:TCOON:003:1,2011-07-08T08:00:00Z,26.8015,-97.4706,0.0,3.8,181.0,4.2,'11111222,11111222,11111222' 
TCOON,ioos:station:TCOON:003:1,2011-07-08T09:00:00Z,26.8015,-97.4706,0.0,2.6,174.0,3.0,'11111222,11111222,11111222' 
TCOON,ioos:station:TCOON:003:1,2011-07-08T10:00:00Z,26.8015,-97.4706,0.0,4.0,179.0,5.1,'11111222,11111222,11111222' 
TCOON,ioos:station:TCOON:003:1,2011-07-08T11:00:00Z,26.8015,-97.4706,0.0,4.0,170.0,4.7,'11111222,11111222,11111222' 
TCOON,ioos:station:TCOON:003:1,2011-07-08T12:00:00Z,26.8015,-97.4706,0.0,4.5,174.0,5.1,'11111222,11111222,11111222' 
TCOON,ioos:station:TCOON:003:1,2011-07-08T13:00:00Z,26.8015,-97.4706,0.0,6.4,163.0,7.2,'11111222,11111222,11111222' 
TCOON,ioos:station:TCOON:003:1,2011-07-08T14:00:00Z,26.8015,-97.4706,0.0,7.2,145.0,8.2,'11111222,11111222,11111222' 
TCOON,ioos:station:TCOON:003:1,2011-07-08T15:00:00Z,26.8015,-97.4706,0.0,6.7,137.0,7.6,'11111222,11111222,11111222' 
TCOON,ioos:station:TCOON:003:1,2011-07-08T16:00:00Z,26.8015,-97.4706,0.0,6.5,135.0,7.2,'11111222,11111222,11111222' 
TCOON,ioos:station:TCOON:003:1,2011-07-08T17:00:00Z,26.8015,-97.4706,0.0,6.0,136.0,6.5,'11111222,11111222,11111222' 
TCOON,ioos:station:TCOON:003:1,2011-07-08T18:00:00Z,26.8015,-97.4706,0.0,5.6,134.0,6.1,'11111222,11111222,11111222' 
TCOON,ioos:station:TCOON:003:1,2011-07-08T19:00:00Z,26.8015,-97.4706,0.0,8.0,103.0,9.9,'11111222,11111222,11111222' 
TCOON,ioos:station:TCOON:003:1,2011-07-08T20:00:00Z,26.8015,-97.4706,0.0,9.5,107.0,10.9,'11111222,11111222,11111222' 
TCOON,ioos:station:TCOON:003:1,2011-07-08T21:00:00Z,26.8015,-97.4706,0.0,9.3,111.0,10.7,'11111222,11111222,11111222' 
TCOON,ioos:station:TCOON:003:1,2011-07-08T22:00:00Z,26.8015,-97.4706,0.0,9.2,116.0,10.8,'11111222,11111222,11111222' 
TCOON,ioos:station:TCOON:003:1,2011-07-08T23:00:00Z,26.8015,-97.4706,0.0,9.1,110.0,11.0,'11111222,11111222,11111222' 
TCOON,ioos:station:TCOON:003:1,2011-07-09T00:00:00Z,26.8015,-97.4706,0.0,9.8,120.0,11.0,'11111222,11111222,11111222' 
TCOON,ioos:station:TCOON:003:1,2011-07-09T01:00:00Z,26.8015,-97.4706,0.0,8.1,120.0,9.6,'11111222,11111222,11111222' 
TCOON,ioos:station:TCOON:003:1,2011-07-09T02:00:00Z,26.8015,-97.4706,0.0,8.4,124.0,9.7,'11111222,11111222,11111222' 
TCOON,ioos:station:TCOON:003:1,2011-07-09T03:00:00Z,26.8015,-97.4706,0.0,8.1,132.0,9.9,'11111222,11111222,11111222' 
TCOON,ioos:station:TCOON:003:1,2011-07-09T04:00:00Z,26.8015,-97.4706,0.0,9.7,144.0,11.1,'11111222,11111222,11111222' 
TCOON,ioos:station:TCOON:003:1,2011-07-09T05:00:00Z,26.8015,-97.4706,0.0,9.6,142.0,10.9,'11111222,11111222,11111222' 
TCOON,ioos:station:TCOON:003:1,2011-07-09T06:00:00Z,26.8015,-97.4706,0.0,8.5,146.0,10.2,'11111222,11111222,11111222' 
TCOON,ioos:station:TCOON:003:1,2011-07-09T07:00:00Z,26.8015,-97.4706,0.0,5.3,178.0,6.1,'11111222,11111222,11111222' 
TCOON,ioos:station:TCOON:003:1,2011-07-09T08:00:00Z,26.8015,-97.4706,0.0,5.4,178.0,6.8,'11111222,11111222,11111222' 
TCOON,ioos:station:TCOON:003:1,2011-07-09T09:00:00Z,26.8015,-97.4706,0.0,5.2,165.0,6.1,'11111222,11111222,11111222' 
TCOON,ioos:station:TCOON:003:1,2011-07-09T10:00:00Z,26.8015,-97.4706,0.0,8.0,160.0,9.5,'11111222,11111222,11111222' 
TCOON,ioos:station:TCOON:003:1,2011-07-09T11:00:00Z,26.8015,-97.4706,0.0,6.2,127.0,7.6,'11111222,11111222,11111222' 
TCOON,ioos:station:TCOON:003:1,2011-07-09T12:00:00Z,26.8015,-97.4706,0.0,5.0,135.0,6.3,'11111222,11111222,11111222' 